ONEWEB-0133, 47279

Orbit data source: Space-Track

ONEWEB-0133, 47279 is a payload satellite owned by One Web (UK) in LEO that was launched on Fri, 18 Dec 2020 UTC via a SOYUZ-2-1B launch vehicle from the Vostochny Cosmodrome (VOSTO). Payload-class satellites include a variety of spacecraft equipped with specific instruments for various scientific and technological missions. These include communications satellites like Starlink; space stations such as the ISS; scientific satellites like the Hubble; Earth observation satellites from companies like Planet Labs, Umbra, and HawkEye 360; GPS; miniature CubeSats for education and research; and military/defense satellites.

Loading next visibility...
Identifier
47279, 2020-100X
Orbit
LEO
Country
Flag of UKUK
Related business
Manufacturer
One Web
Mission
Operational Commercial Communications
Bus & Motor
ARROW, Unknown motor
Mass
148 kg wet, ~140 kg dry
Launch date (UTC)
2020-12-18 (5 years ago)
Launch vehicle
SOYUZ-2-1B
Launch site
Vostochny Cosmodrome (VOSTO)
Object type
Payload
Rocket body
Debris
Shape & HBR
Trap Box + 2 Pan, 6.7 m
Radar Cross Section
3.464 m², Large (>1 m²)

Expand to show TLE details & history
Last TLE update: 9 hours ago

TLE from 9 hours ago
0 ONEWEB-0133
1 47279U 20100X   26095.50183065  .00000441  00000-0  11907-2 0  9991
2 47279  87.9022   5.0784 0001899  81.9068 278.2276 13.12445276255205
Epoch: 2026-04-05T12:02Z
TLE epoch observation values (Epoch: 2026-04-05T12:02:38.168Z)
Latitude
Longitude
-9.38697°
Altitude
1,216.399 km
Speed
7.246 km/s
True Right ascension
00h 20m 18s
True Declination
0° 00' 00"
Sunlit
Object was in daylight at epoch
Visualization orbit readout
Latitude
Unknown
Longitude
Unknown
Altitude
Unknown
Speed
Unknown
Apparent Right ascension
Unknown
Apparent Declination
Unknown
Sunlit
N/A
Visualization observer readout
Local Sidereal Time
02:45:48
Azimuth
Unknown
Elevation
Unknown
Doppler factor
Unknown
Orbital elements
Apogee altitude
1,212.272 km
Perigee altitude
1,209.39 km
Semi-major axis
7,588.968 km
Eccentricity
0.00019
Inclination
87.9022°
RAAN
5.0784°
Arg. of periapsis
81.9068°
True anomaly
278.20606°
Mean anomaly
278.2276°
Eccentric anomaly
278.21683°
Mean motion
3.28299 °/min
Orbital period
109.66 mins
BSTAR
0.0011907
Loading maneuver chart data...
Computing Atmospheric mass density...
Loading historical data...
Loading historical data...
Loading historical data...
Loading historical data...
Loading historical data...
Loading historical data...
Loading historical data...

Documentation

Showing up to 5 results
|